Time,TemperatureF,DewpointF,PressureIn,WindDirection,WindDirectionDegrees,WindSpeedMPH,WindSpeedGustMPH,Humidity,HourlyPrecipIn,Conditions,Clouds,dailyrainin,SoftwareType,DateUTC
2013-03-03 00:00:00,22.7,20.2,29.78,SSW,202,1.0,4.0,90,0.00,,,0.00,VWS V14.01,2013-03-03 05:00:00,
2013-03-03 00:05:00,22.6,20.1,29.78,SW,225,2.0,7.0,90,0.00,,,0.00,VWS V14.01,2013-03-03 05:05:00,
2013-03-03 00:10:00,22.5,20.0,29.78,WSW,248,2.0,5.0,90,0.00,,,0.00,VWS V14.01,2013-03-03 05:10:00,
2013-03-03 00:15:00,22.4,19.9,29.78,South,180,1.0,4.0,90,0.00,,,0.00,VWS V14.01,2013-03-03 05:15:00,
2013-03-03 00:20:00,22.4,19.9,29.78,SW,225,1.0,9.0,90,0.00,,,0.00,VWS V14.01,2013-03-03 05:20:00,
2013-03-03 00:25:00,22.4,19.9,29.77,South,180,1.0,6.0,90,0.00,,,0.00,VWS V14.01,2013-03-03 05:25:00,
2013-03-03 00:30:00,22.4,19.9,29.77,WSW,248,1.0,4.0,90,0.00,,,0.00,VWS V14.01,2013-03-03 05:30:00,
2013-03-03 00:35:00,22.4,19.9,29.78,WSW,248,1.0,5.0,90,0.00,,,0.00,VWS V14.01,2013-03-03 05:35:00,
2013-03-03 00:40:00,22.4,19.9,29.78,ESE,112,2.0,6.0,90,0.00,,,0.00,VWS V14.01,2013-03-03 05:40:00,
2013-03-03 00:45:00,22.4,19.9,29.78,SW,225,2.0,8.0,90,0.00,,,0.00,VWS V14.01,2013-03-03 05:45:00,
2013-03-03 00:50:00,22.4,19.9,29.78,SSW,202,2.0,5.0,90,0.00,,,0.00,VWS V14.01,2013-03-03 05:50:00,
2013-03-03 00:55:00,22.3,19.8,29.78,SW,225,2.0,5.0,90,0.00,,,0.00,VWS V14.01,2013-03-03 05:55:00,
2013-03-03 01:00:00,22.3,19.8,29.78,SW,225,2.0,5.0,90,0.00,,,0.00,VWS V14.01,2013-03-03 06:00:00,
2013-03-03 01:05:00,22.3,19.8,29.78,SW,225,1.0,4.0,90,0.00,,,0.00,VWS V14.01,2013-03-03 06:05:00,
2013-03-03 01:10:00,22.2,19.7,29.77,ESE,112,1.0,3.0,90,0.00,,,0.00,VWS V14.01,2013-03-03 06:10:00,
2013-03-03 01:15:00,22.2,19.7,29.77,SSW,202,1.0,4.0,90,0.00,,,0.00,VWS V14.01,2013-03-03 06:15:00,
2013-03-03 01:20:00,22.2,19.7,29.77,WSW,248,1.0,4.0,90,0.00,,,0.00,VWS V14.01,2013-03-03 06:20:00,
2013-03-03 01:25:00,22.2,19.7,29.77,SSW,202,1.0,4.0,90,0.00,,,0.00,VWS V14.01,2013-03-03 06:25:00,
2013-03-03 01:30:00,22.1,19.6,29.77,SSW,202,1.0,3.0,90,0.00,,,0.00,VWS V14.01,2013-03-03 06:30:00,
2013-03-03 01:35:00,22.1,19.6,29.77,SW,225,1.0,5.0,90,0.00,,,0.00,VWS V14.01,2013-03-03 06:35:00,
2013-03-03 01:40:00,22.1,19.6,29.77,SW,225,0.0,2.0,90,0.00,,,0.00,VWS V14.01,2013-03-03 06:40:00,
2013-03-03 01:45:00,22.1,19.6,29.77,SW,225,1.0,4.0,90,0.00,,,0.00,VWS V14.01,2013-03-03 06:45:00,
2013-03-03 01:50:00,22.1,19.6,29.77,SE,135,1.0,3.0,90,0.00,,,0.00,VWS V14.01,2013-03-03 06:50:00,
2013-03-03 01:55:00,22.0,19.5,29.77,WSW,248,1.0,2.0,90,0.00,,,0.00,VWS V14.01,2013-03-03 06:55:00,
2013-03-03 02:00:00,22.0,19.5,29.77,WSW,248,0.0,2.0,90,0.00,,,0.00,VWS V14.01,2013-03-03 07:00:00,
2013-03-03 02:05:00,22.0,19.5,29.77,SW,225,0.0,3.0,90,0.00,,,0.00,VWS V14.01,2013-03-03 07:05:00,
2013-03-03 02:10:00,22.0,19.5,29.76,SW,225,0.0,1.0,90,0.00,,,0.00,VWS V14.01,2013-03-03 07:10:00,
2013-03-03 02:15:00,22.0,19.5,29.76,SW,225,0.0,2.0,90,0.00,,,0.00,VWS V14.01,2013-03-03 07:15:00,
2013-03-03 02:20:00,22.0,19.5,29.76,SW,225,1.0,3.0,90,0.00,,,0.00,VWS V14.01,2013-03-03 07:20:00,
2013-03-03 02:25:00,22.0,19.5,29.76,WSW,248,1.0,4.0,90,0.00,,,0.00,VWS V14.01,2013-03-03 07:25:00,
2013-03-03 02:30:00,22.0,19.5,29.76,WSW,248,1.0,3.0,90,0.00,,,0.00,VWS V14.01,2013-03-03 07:30:00,
2013-03-03 02:35:00,22.0,19.5,29.76,WSW,248,2.0,6.0,90,0.00,,,0.00,VWS V14.01,2013-03-03 07:35:00,
2013-03-03 02:40:00,22.0,19.5,29.76,SW,225,1.0,5.0,90,0.00,,,0.00,VWS V14.01,2013-03-03 07:40:00,
2013-03-03 02:45:00,22.0,19.5,29.76,WSW,248,1.0,4.0,90,0.00,,,0.00,VWS V14.01,2013-03-03 07:45:00,
2013-03-03 02:50:00,22.0,19.5,29.75,WSW,248,1.0,4.0,90,0.00,,,0.00,VWS V14.01,2013-03-03 07:50:00,
2013-03-03 02:55:00,22.0,19.5,29.75,WSW,248,1.0,3.0,90,0.00,,,0.00,VWS V14.01,2013-03-03 07:55:00,
2013-03-03 03:00:00,22.0,19.5,29.75,WSW,248,1.0,4.0,90,0.00,,,0.00,VWS V14.01,2013-03-03 08:00:00,
2013-03-03 03:05:00,22.0,19.8,29.75,SW,225,1.0,3.0,91,0.00,,,0.00,VWS V14.01,2013-03-03 08:05:00,
2013-03-03 03:10:00,22.0,19.8,29.75,South,180,1.0,3.0,91,0.00,,,0.00,VWS V14.01,2013-03-03 08:10:00,
2013-03-03 03:15:00,22.0,19.8,29.75,WSW,248,0.0,3.0,91,0.00,,,0.00,VWS V14.01,2013-03-03 08:15:00,
2013-03-03 03:20:00,22.0,19.8,29.75,WSW,248,0.0,2.0,91,0.00,,,0.00,VWS V14.01,2013-03-03 08:20:00,
2013-03-03 03:25:00,22.0,19.8,29.75,SSW,202,0.0,3.0,91,0.00,,,0.00,VWS V14.01,2013-03-03 08:25:00,
2013-03-03 03:30:00,22.0,19.8,29.75,WSW,248,1.0,5.0,91,0.00,,,0.00,VWS V14.01,2013-03-03 08:30:00,
2013-03-03 03:35:00,22.0,19.8,29.75,WSW,248,0.0,2.0,91,0.00,,,0.00,VWS V14.01,2013-03-03 08:35:00,
2013-03-03 03:40:00,22.0,19.8,29.75,WSW,248,1.0,3.0,91,0.00,,,0.00,VWS V14.01,2013-03-03 08:40:00,
2013-03-03 03:45:00,22.0,19.8,29.75,SW,225,1.0,3.0,91,0.00,,,0.00,VWS V14.01,2013-03-03 08:45:00,
2013-03-03 03:50:00,22.0,19.8,29.75,SW,225,1.0,4.0,91,0.00,,,0.00,VWS V14.01,2013-03-03 08:50:00,
2013-03-03 03:55:00,22.1,19.9,29.75,SW,225,1.0,4.0,91,0.00,,,0.00,VWS V14.01,2013-03-03 08:55:00,
2013-03-03 04:00:00,22.1,19.9,29.75,SW,225,1.0,3.0,91,0.00,,,0.00,VWS V14.01,2013-03-03 09:00:00,
2013-03-03 04:05:00,22.1,19.9,29.75,SW,225,1.0,2.0,91,0.00,,,0.00,VWS V14.01,2013-03-03 09:05:00,
2013-03-03 04:10:00,22.1,19.9,29.75,SW,225,1.0,2.0,91,0.00,,,0.00,VWS V14.01,2013-03-03 09:10:00,
2013-03-03 04:15:00,22.1,19.9,29.75,SW,225,1.0,4.0,91,0.00,,,0.00,VWS V14.01,2013-03-03 09:15:00,
2013-03-03 04:20:00,22.2,20.0,29.75,SW,225,2.0,5.0,91,0.00,,,0.00,VWS V14.01,2013-03-03 09:20:00,
2013-03-03 04:25:00,22.1,19.6,29.75,SW,225,1.0,3.0,90,0.00,,,0.00,VWS V14.01,2013-03-03 09:25:00,
2013-03-03 04:30:00,22.1,19.6,29.75,SW,225,1.0,5.0,90,0.00,,,0.00,VWS V14.01,2013-03-03 09:30:00,
2013-03-03 04:35:00,22.2,19.7,29.75,SW,225,0.0,0.0,90,0.00,,,0.00,VWS V14.01,2013-03-03 09:35:00,
2013-03-03 04:40:00,22.2,19.7,29.75,SW,225,0.0,2.0,90,0.00,,,0.00,VWS V14.01,2013-03-03 09:40:00,
2013-03-03 04:45:00,22.2,20.0,29.75,SW,225,0.0,2.0,91,0.00,,,0.00,VWS V14.01,2013-03-03 09:45:00,
2013-03-03 04:50:00,22.3,20.1,29.75,South,180,0.0,3.0,91,0.00,,,0.00,VWS V14.01,2013-03-03 09:50:00,
2013-03-03 04:55:00,22.3,20.1,29.75,SSW,202,1.0,4.0,91,0.00,,,0.00,VWS V14.01,2013-03-03 09:55:00,
2013-03-03 05:00:00,22.3,20.1,29.75,WNW,292,1.0,5.0,91,0.00,,,0.00,VWS V14.01,2013-03-03 10:00:00,
2013-03-03 05:05:00,22.3,20.1,29.75,WSW,248,1.0,3.0,91,0.00,,,0.00,VWS V14.01,2013-03-03 10:05:00,
2013-03-03 05:10:00,22.3,20.1,29.75,WSW,248,0.0,2.0,91,0.00,,,0.00,VWS V14.01,2013-03-03 10:10:00,
2013-03-03 05:15:00,22.3,19.8,29.75,SW,225,1.0,5.0,90,0.00,,,0.00,VWS V14.01,2013-03-03 10:15:00,
2013-03-03 05:20:00,22.2,19.7,29.75,WSW,248,1.0,4.0,90,0.00,,,0.00,VWS V14.01,2013-03-03 10:20:00,
2013-03-03 05:25:00,22.2,19.7,29.75,WSW,248,1.0,3.0,90,0.00,,,0.00,VWS V14.01,2013-03-03 10:25:00,
2013-03-03 05:30:00,22.2,19.7,29.75,WSW,248,2.0,5.0,90,0.00,,,0.00,VWS V14.01,2013-03-03 10:30:00,
2013-03-03 05:35:00,22.2,19.7,29.76,SW,225,1.0,4.0,90,0.00,,,0.00,VWS V14.01,2013-03-03 10:35:00,
2013-03-03 05:40:00,22.2,19.7,29.76,WSW,248,1.0,4.0,90,0.00,,,0.00,VWS V14.01,2013-03-03 10:40:00,
2013-03-03 05:45:00,22.2,19.7,29.75,West,270,2.0,5.0,90,0.00,,,0.00,VWS V14.01,2013-03-03 10:45:00,
2013-03-03 05:50:00,22.2,19.7,29.76,SW,225,1.0,4.0,90,0.00,,,0.00,VWS V14.01,2013-03-03 10:50:00,
2013-03-03 05:55:00,22.2,19.7,29.76,WSW,248,2.0,4.0,90,0.00,,,0.00,VWS V14.01,2013-03-03 10:55:00,
2013-03-03 06:00:00,22.2,19.7,29.76,West,270,1.0,4.0,90,0.00,,,0.00,VWS V14.01,2013-03-03 11:00:00,
2013-03-03 06:05:00,22.2,19.7,29.76,SW,225,2.0,4.0,90,0.00,,,0.00,VWS V14.01,2013-03-03 11:05:00,
2013-03-03 06:10:00,22.2,19.7,29.76,SW,225,1.0,4.0,90,0.00,,,0.00,VWS V14.01,2013-03-03 11:10:00,
2013-03-03 06:15:00,22.2,19.7,29.76,WSW,248,1.0,4.0,90,0.00,,,0.00,VWS V14.01,2013-03-03 11:15:00,
2013-03-03 06:20:00,22.2,19.7,29.76,SW,225,0.0,2.0,90,0.00,,,0.00,VWS V14.01,2013-03-03 11:20:00,
2013-03-03 06:25:00,22.2,19.7,29.76,SW,225,0.0,2.0,90,0.00,,,0.00,VWS V14.01,2013-03-03 11:25:00,
2013-03-03 06:30:00,22.2,19.7,29.76,SW,225,0.0,3.0,90,0.00,,,0.00,VWS V14.01,2013-03-03 11:30:00,
2013-03-03 06:35:00,22.3,19.8,29.76,SW,225,0.0,2.0,90,0.00,,,0.00,VWS V14.01,2013-03-03 11:35:00,
2013-03-03 06:40:00,22.3,19.8,29.76,SW,225,0.0,1.0,90,0.00,,,0.00,VWS V14.01,2013-03-03 11:40:00,
2013-03-03 06:45:00,22.3,19.8,29.76,SW,225,1.0,4.0,90,0.00,,,0.00,VWS V14.01,2013-03-03 11:45:00,
2013-03-03 06:50:00,22.4,19.9,29.76,SW,225,0.0,2.0,90,0.00,,,0.00,VWS V14.01,2013-03-03 11:50:00,
2013-03-03 06:55:00,22.4,19.9,29.76,WSW,248,1.0,5.0,90,0.00,,,0.00,VWS V14.01,2013-03-03 11:55:00,
2013-03-03 07:00:00,22.4,19.7,29.76,SSW,202,2.0,4.0,89,0.00,,,0.00,VWS V14.01,2013-03-03 12:00:00,
2013-03-03 07:05:00,22.5,19.8,29.76,West,270,1.0,3.0,89,0.00,,,0.00,VWS V14.01,2013-03-03 12:05:00,
2013-03-03 07:10:00,22.6,19.9,29.76,WSW,248,2.0,5.0,89,0.00,,,0.00,VWS V14.01,2013-03-03 12:10:00,
2013-03-03 07:15:00,22.7,20.0,29.76,West,270,2.0,9.0,89,0.00,,,0.00,VWS V14.01,2013-03-03 12:15:00,
2013-03-03 07:20:00,22.7,19.7,29.76,SW,225,2.0,6.0,88,0.00,,,0.00,VWS V14.01,2013-03-03 12:20:00,
2013-03-03 07:25:00,22.8,19.8,29.77,WSW,248,2.0,7.0,88,0.00,,,0.00,VWS V14.01,2013-03-03 12:25:00,
2013-03-03 07:30:00,22.9,19.9,29.77,SW,225,3.0,6.0,88,0.00,,,0.00,VWS V14.01,2013-03-03 12:30:00,
2013-03-03 07:35:00,23.0,20.0,29.77,WSW,248,2.0,5.0,88,0.00,,,0.00,VWS V14.01,2013-03-03 12:35:00,
2013-03-03 07:40:00,23.1,20.1,29.77,West,270,1.0,3.0,88,0.00,,,0.00,VWS V14.01,2013-03-03 12:40:00,
2013-03-03 07:45:00,23.2,20.2,29.77,WSW,248,1.0,3.0,88,0.00,,,0.00,VWS V14.01,2013-03-03 12:45:00,
2013-03-03 07:50:00,23.3,20.3,29.77,SW,225,1.0,3.0,88,0.00,,,0.00,VWS V14.01,2013-03-03 12:50:00,
2013-03-03 07:55:00,23.4,20.4,29.77,SW,225,1.0,4.0,88,0.00,,,0.00,VWS V14.01,2013-03-03 12:55:00,
2013-03-03 08:00:00,23.5,20.2,29.77,South,180,1.0,5.0,87,0.00,,,0.00,VWS V14.01,2013-03-03 13:00:00,
2013-03-03 08:05:00,23.6,20.3,29.77,WSW,248,1.0,6.0,87,0.00,,,0.00,VWS V14.01,2013-03-03 13:05:00,
2013-03-03 08:10:00,23.6,20.3,29.77,SW,225,1.0,6.0,87,0.00,,,0.00,VWS V14.01,2013-03-03 13:10:00,
2013-03-03 08:15:00,23.6,20.3,29.77,SSW,202,1.0,3.0,87,0.00,,,0.00,VWS V14.01,2013-03-03 13:15:00,
2013-03-03 08:20:00,23.7,20.4,29.77,WSW,248,2.0,4.0,87,0.00,,,0.00,VWS V14.01,2013-03-03 13:20:00,
2013-03-03 08:25:00,23.8,20.5,29.77,SW,225,1.0,5.0,87,0.00,,,0.00,VWS V14.01,2013-03-03 13:25:00,
2013-03-03 08:30:00,23.8,20.5,29.77,SW,225,1.0,2.0,87,0.00,,,0.00,VWS V14.01,2013-03-03 13:30:00,
2013-03-03 08:35:00,23.9,20.6,29.76,South,180,0.0,4.0,87,0.00,,,0.00,VWS V14.01,2013-03-03 13:35:00,
2013-03-03 08:40:00,23.9,20.6,29.76,SW,225,1.0,3.0,87,0.00,,,0.00,VWS V14.01,2013-03-03 13:40:00,
2013-03-03 08:45:00,23.9,20.6,29.76,SSW,202,0.0,3.0,87,0.00,,,0.00,VWS V14.01,2013-03-03 13:45:00,
2013-03-03 08:50:00,24.1,20.8,29.76,SSW,202,0.0,2.0,87,0.00,,,0.00,VWS V14.01,2013-03-03 13:50:00,
2013-03-03 08:55:00,24.2,20.9,29.76,SW,225,1.0,4.0,87,0.00,,,0.00,VWS V14.01,2013-03-03 13:55:00,
2013-03-03 09:00:00,24.3,20.7,29.76,SW,225,1.0,5.0,86,0.00,,,0.00,VWS V14.01,2013-03-03 14:00:00,
2013-03-03 09:05:00,24.4,20.8,29.76,WSW,248,0.0,3.0,86,0.00,,,0.00,VWS V14.01,2013-03-03 14:05:00,
2013-03-03 09:10:00,24.5,20.9,29.76,SSW,202,1.0,5.0,86,0.00,,,0.00,VWS V14.01,2013-03-03 14:10:00,
2013-03-03 09:15:00,24.5,20.9,29.76,SW,225,0.0,3.0,86,0.00,,,0.00,VWS V14.01,2013-03-03 14:15:00,
2013-03-03 09:20:00,24.7,21.1,29.76,SW,225,1.0,5.0,86,0.00,,,0.00,VWS V14.01,2013-03-03 14:20:00,
2013-03-03 09:25:00,24.8,21.2,29.76,South,180,1.0,6.0,86,0.00,,,0.00,VWS V14.01,2013-03-03 14:25:00,
2013-03-03 09:30:00,24.8,21.2,29.76,South,180,2.0,6.0,86,0.00,,,0.00,VWS V14.01,2013-03-03 14:30:00,
2013-03-03 09:35:00,24.8,21.2,29.76,ESE,112,1.0,4.0,86,0.00,,,0.00,VWS V14.01,2013-03-03 14:35:00,
2013-03-03 09:40:00,24.9,21.0,29.76,SW,225,1.0,4.0,85,0.00,,,0.00,VWS V14.01,2013-03-03 14:40:00,
2013-03-03 09:45:00,25.1,21.2,29.76,SSW,202,2.0,7.0,85,0.00,,,0.00,VWS V14.01,2013-03-03 14:45:00,
2013-03-03 09:50:00,25.2,21.3,29.75,SSE,158,1.0,5.0,85,0.00,,,0.00,VWS V14.01,2013-03-03 14:50:00,
2013-03-03 09:55:00,25.5,21.6,29.75,SSW,202,1.0,5.0,85,0.00,,,0.00,VWS V14.01,2013-03-03 14:55:00,
2013-03-03 10:00:00,25.7,21.8,29.75,SSW,202,1.0,6.0,85,0.00,,,0.00,VWS V14.01,2013-03-03 15:00:00,
2013-03-03 10:05:00,25.9,22.0,29.75,South,180,2.0,7.0,85,0.00,,,0.00,VWS V14.01,2013-03-03 15:05:00,
2013-03-03 10:10:00,26.1,21.9,29.75,ENE,68,1.0,4.0,84,0.00,,,0.00,VWS V14.01,2013-03-03 15:10:00,
2013-03-03 10:15:00,26.2,22.0,29.75,East,90,2.0,5.0,84,0.00,,,0.00,VWS V14.01,2013-03-03 15:15:00,
2013-03-03 10:20:00,26.2,22.0,29.75,SE,135,1.0,4.0,84,0.00,,,0.00,VWS V14.01,2013-03-03 15:20:00,
2013-03-03 10:25:00,26.1,21.9,29.75,SSW,202,1.0,4.0,84,0.00,,,0.00,VWS V14.01,2013-03-03 15:25:00,
2013-03-03 10:30:00,26.0,21.8,29.75,SE,135,1.0,4.0,84,0.00,,,0.00,VWS V14.01,2013-03-03 15:30:00,
2013-03-03 10:35:00,26.1,21.9,29.75,SW,225,1.0,6.0,84,0.00,,,0.00,VWS V14.01,2013-03-03 15:35:00,
2013-03-03 10:40:00,26.2,22.0,29.75,SE,135,1.0,4.0,84,0.00,,,0.00,VWS V14.01,2013-03-03 15:40:00,
2013-03-03 10:45:00,26.3,22.1,29.75,East,90,2.0,6.0,84,0.00,,,0.00,VWS V14.01,2013-03-03 15:45:00,
2013-03-03 10:50:00,26.5,22.3,29.75,South,180,1.0,5.0,84,0.00,,,0.00,VWS V14.01,2013-03-03 15:50:00,
2013-03-03 10:55:00,26.7,22.2,29.75,SSE,158,2.0,9.0,83,0.00,,,0.00,VWS V14.01,2013-03-03 15:55:00,
2013-03-03 11:00:00,26.8,22.3,29.75,WSW,248,2.0,6.0,83,0.00,,,0.00,VWS V14.01,2013-03-03 16:00:00,
2013-03-03 11:05:00,27.0,22.5,29.75,WSW,248,1.0,3.0,83,0.00,,,0.00,VWS V14.01,2013-03-03 16:05:00,
2013-03-03 11:10:00,27.3,22.8,29.75,WSW,248,3.0,8.0,83,0.00,,,0.00,VWS V14.01,2013-03-03 16:10:00,
2013-03-03 11:15:00,27.4,22.6,29.75,WNW,292,1.0,5.0,82,0.00,,,0.00,VWS V14.01,2013-03-03 16:15:00,
2013-03-03 11:20:00,27.4,22.6,29.75,SE,135,2.0,8.0,82,0.00,,,0.00,VWS V14.01,2013-03-03 16:20:00,
2013-03-03 11:25:00,27.4,22.6,29.75,South,180,2.0,7.0,82,0.00,,,0.00,VWS V14.01,2013-03-03 16:25:00,
2013-03-03 11:30:00,27.6,22.5,29.75,SSW,202,2.0,12.0,81,0.00,,,0.00,VWS V14.01,2013-03-03 16:30:00,
2013-03-03 11:35:00,27.7,22.6,29.75,South,180,3.0,7.0,81,0.00,,,0.00,VWS V14.01,2013-03-03 16:35:00,
2013-03-03 11:40:00,27.6,22.5,29.75,ESE,112,2.0,5.0,81,0.00,,,0.00,VWS V14.01,2013-03-03 16:40:00,
2013-03-03 11:45:00,27.5,22.5,29.75,SE,135,2.0,7.0,81,0.00,,,0.00,VWS V14.01,2013-03-03 16:45:00,
2013-03-03 11:50:00,27.5,22.5,29.75,SW,225,2.0,9.0,81,0.00,,,0.00,VWS V14.01,2013-03-03 16:50:00,
2013-03-03 11:55:00,27.8,22.4,29.75,SE,135,2.0,7.0,80,0.00,,,0.00,VWS V14.01,2013-03-03 16:55:00,
2013-03-03 12:00:00,28.1,22.7,29.74,SW,225,2.0,9.0,80,0.00,,,0.00,VWS V14.01,2013-03-03 17:00:00,
2013-03-03 12:05:00,28.3,22.6,29.74,ESE,112,3.0,7.0,79,0.00,,,0.00,VWS V14.01,2013-03-03 17:05:00,
2013-03-03 12:10:00,28.3,22.6,29.74,South,180,2.0,11.0,79,0.00,,,0.00,VWS V14.01,2013-03-03 17:10:00,
2013-03-03 12:15:00,28.4,22.4,29.74,SW,225,3.0,10.0,78,0.00,,,0.00,VWS V14.01,2013-03-03 17:15:00,
2013-03-03 12:20:00,28.4,22.4,29.74,SW,225,3.0,7.0,78,0.00,,,0.00,VWS V14.01,2013-03-03 17:20:00,
2013-03-03 12:25:00,28.3,22.3,29.74,SW,225,2.0,10.0,78,0.00,,,0.00,VWS V14.01,2013-03-03 17:25:00,
2013-03-03 12:30:00,28.3,22.6,29.73,West,270,2.0,10.0,79,0.00,,,0.00,VWS V14.01,2013-03-03 17:30:00,
2013-03-03 12:35:00,28.3,22.6,29.73,SE,135,2.0,5.0,79,0.00,,,0.00,VWS V14.01,2013-03-03 17:35:00,
2013-03-03 12:40:00,28.4,22.7,29.73,SW,225,1.0,4.0,79,0.00,,,0.00,VWS V14.01,2013-03-03 17:40:00,
2013-03-03 12:45:00,28.5,22.8,29.73,SSE,158,1.0,5.0,79,0.00,,,0.00,VWS V14.01,2013-03-03 17:45:00,
2013-03-03 12:50:00,28.6,22.6,29.73,WSW,248,2.0,7.0,78,0.00,,,0.00,VWS V14.01,2013-03-03 17:50:00,
2013-03-03 12:55:00,28.5,22.5,29.73,WSW,248,3.0,10.0,78,0.00,,,0.00,VWS V14.01,2013-03-03 17:55:00,
2013-03-03 13:00:00,28.4,22.4,29.73,SE,135,3.0,9.0,78,0.00,,,0.00,VWS V14.01,2013-03-03 18:00:00,
2013-03-03 13:05:00,28.3,22.6,29.73,SE,135,3.0,10.0,79,0.00,,,0.00,VWS V14.01,2013-03-03 18:05:00,
2013-03-03 13:10:00,28.2,22.2,29.73,WSW,248,3.0,6.0,78,0.00,,,0.00,VWS V14.01,2013-03-03 18:10:00,
2013-03-03 13:15:00,28.0,22.3,29.73,SW,225,3.0,7.0,79,0.00,,,0.00,VWS V14.01,2013-03-03 18:15:00,
2013-03-03 13:20:00,28.0,22.3,29.72,SW,225,2.0,7.0,79,0.00,,,0.00,VWS V14.01,2013-03-03 18:20:00,
2013-03-03 13:25:00,28.2,22.8,29.72,SW,225,1.0,3.0,80,0.00,,,0.00,VWS V14.01,2013-03-03 18:25:00,
2013-03-03 13:30:00,28.4,22.7,29.72,SSW,202,3.0,6.0,79,0.00,,,0.00,VWS V14.01,2013-03-03 18:30:00,
2013-03-03 13:35:00,28.5,22.5,29.72,NW,315,3.0,9.0,78,0.00,,,0.00,VWS V14.01,2013-03-03 18:35:00,
2013-03-03 13:40:00,28.5,22.8,29.72,WNW,292,2.0,5.0,79,0.00,,,0.00,VWS V14.01,2013-03-03 18:40:00,
2013-03-03 13:45:00,28.7,23.0,29.72,SW,225,2.0,9.0,79,0.00,,,0.00,VWS V14.01,2013-03-03 18:45:00,
2013-03-03 13:50:00,28.8,22.8,29.72,West,270,2.0,6.0,78,0.00,,,0.00,VWS V14.01,2013-03-03 18:50:00,
2013-03-03 13:55:00,28.8,22.8,29.72,South,180,2.0,10.0,78,0.00,,,0.00,VWS V14.01,2013-03-03 18:55:00,
2013-03-03 14:00:00,28.8,22.8,29.72,South,180,1.0,4.0,78,0.00,,,0.00,VWS V14.01,2013-03-03 19:00:00,
2013-03-03 14:05:00,29.0,23.0,29.72,SSW,202,1.0,6.0,78,0.00,,,0.00,VWS V14.01,2013-03-03 19:05:00,
2013-03-03 14:10:00,29.1,23.1,29.72,SSW,202,3.0,7.0,78,0.00,,,0.00,VWS V14.01,2013-03-03 19:10:00,
2013-03-03 14:15:00,29.1,23.1,29.72,SW,225,2.0,6.0,78,0.00,,,0.00,VWS V14.01,2013-03-03 19:15:00,
2013-03-03 14:20:00,29.1,23.1,29.71,SSW,202,3.0,7.0,78,0.00,,,0.00,VWS V14.01,2013-03-03 19:20:00,
2013-03-03 14:25:00,29.3,23.3,29.71,SW,225,2.0,7.0,78,0.00,,,0.00,VWS V14.01,2013-03-03 19:25:00,
2013-03-03 14:30:00,29.6,23.6,29.71,SW,225,3.0,7.0,78,0.00,,,0.00,VWS V14.01,2013-03-03 19:30:00,
2013-03-03 14:35:00,29.7,23.4,29.71,West,270,2.0,6.0,77,0.00,,,0.00,VWS V14.01,2013-03-03 19:35:00,
2013-03-03 14:40:00,29.8,23.5,29.71,WSW,248,1.0,5.0,77,0.00,,,0.00,VWS V14.01,2013-03-03 19:40:00,
2013-03-03 14:45:00,30.0,23.4,29.71,SW,225,2.0,6.0,76,0.00,,,0.00,VWS V14.01,2013-03-03 19:45:00,
2013-03-03 14:50:00,30.0,23.4,29.71,WSW,248,1.0,4.0,76,0.00,,,0.00,VWS V14.01,2013-03-03 19:50:00,
2013-03-03 14:55:00,30.0,23.4,29.71,South,180,2.0,6.0,76,0.00,,,0.00,VWS V14.01,2013-03-03 19:55:00,
2013-03-03 15:00:00,30.0,23.4,29.71,SSE,158,2.0,5.0,76,0.00,,,0.00,VWS V14.01,2013-03-03 20:00:00,
2013-03-03 15:05:00,29.9,23.3,29.71,SE,135,1.0,5.0,76,0.00,,,0.00,VWS V14.01,2013-03-03 20:05:00,
2013-03-03 15:10:00,29.9,23.3,29.71,SE,135,1.0,6.0,76,0.00,,,0.00,VWS V14.01,2013-03-03 20:10:00,
2013-03-03 15:15:00,29.9,23.6,29.72,WSW,248,1.0,5.0,77,0.00,,,0.00,VWS V14.01,2013-03-03 20:15:00,
2013-03-03 15:20:00,30.0,23.7,29.71,WSW,248,1.0,4.0,77,0.00,,,0.00,VWS V14.01,2013-03-03 20:20:00,
2013-03-03 15:25:00,30.0,24.0,29.71,SW,225,1.0,5.0,78,0.00,,,0.00,VWS V14.01,2013-03-03 20:25:00,
2013-03-03 15:30:00,29.9,24.2,29.71,SW,225,0.0,0.0,79,0.00,,,0.00,VWS V14.01,2013-03-03 20:30:00,
2013-03-03 15:35:00,30.0,24.3,29.71,NW,315,1.0,3.0,79,0.00,,,0.00,VWS V14.01,2013-03-03 20:35:00,
2013-03-03 15:40:00,29.9,24.2,29.71,SW,225,2.0,5.0,79,0.00,,,0.00,VWS V14.01,2013-03-03 20:40:00,
2013-03-03 15:45:00,29.7,24.0,29.71,SSW,202,1.0,5.0,79,0.00,,,0.00,VWS V14.01,2013-03-03 20:45:00,
2013-03-03 15:50:00,29.5,24.1,29.71,South,180,1.0,5.0,80,0.00,,,0.00,VWS V14.01,2013-03-03 20:50:00,
2013-03-03 15:55:00,29.4,24.0,29.71,SW,225,1.0,4.0,80,0.01,,,0.01,VWS V14.01,2013-03-03 20:55:00,
2013-03-03 16:00:00,28.6,24.1,29.72,SSW,202,0.0,0.0,83,0.00,,,0.01,VWS V14.01,2013-03-03 21:00:00,
2013-03-03 16:04:00,29.4,24.0,29.71,SW,225,1.0,4.0,80,0.01,,,0.01,VWS V14.01,2013-03-03 21:04:00,
2013-03-03 16:05:00,29.2,24.4,29.71,WSW,257,1.0,1.0,82,0.01,,,0.01,VWS V14.01,2013-03-03 21:05:00,
2013-03-03 16:10:00,29.1,24.3,29.71,SE,135,1.0,6.0,82,0.00,,,0.00,VWS V14.01,2013-03-03 21:10:00,
2013-03-03 16:15:00,28.9,24.4,29.72,South,180,1.0,6.0,83,0.01,,,0.01,VWS V14.01,2013-03-03 21:15:00,
2013-03-03 16:20:00,28.9,24.4,29.72,South,180,0.0,2.0,83,0.01,,,0.01,VWS V14.01,2013-03-03 21:20:00,
2013-03-03 16:25:00,28.9,24.4,29.72,South,180,0.0,3.0,83,0.01,,,0.01,VWS V14.01,2013-03-03 21:25:00,
2013-03-03 16:30:00,28.9,24.4,29.72,SW,225,1.0,5.0,83,0.01,,,0.01,VWS V14.01,2013-03-03 21:30:00,
2013-03-03 16:35:00,28.8,24.3,29.72,South,180,1.0,2.0,83,0.01,,,0.01,VWS V14.01,2013-03-03 21:35:00,
2013-03-03 16:40:00,28.8,24.3,29.72,South,180,1.0,3.0,83,0.01,,,0.01,VWS V14.01,2013-03-03 21:40:00,
2013-03-03 16:45:00,28.7,23.9,29.72,SW,225,2.0,4.0,82,0.01,,,0.01,VWS V14.01,2013-03-03 21:45:00,
2013-03-03 16:50:00,28.6,24.1,29.72,SSW,202,1.0,4.0,83,0.01,,,0.01,VWS V14.01,2013-03-03 21:50:00,
2013-03-03 16:55:00,28.6,24.1,29.72,SSW,202,0.0,0.0,83,0.01,,,0.01,VWS V14.01,2013-03-03 21:55:00,
2013-03-03 17:00:00,28.6,24.1,29.72,SSW,202,0.0,0.0,83,0.00,,,0.01,VWS V14.01,2013-03-03 22:00:00,
2013-03-03 17:05:00,28.6,24.1,29.72,SSW,202,1.0,4.0,83,0.00,,,0.01,VWS V14.01,2013-03-03 22:05:00,
2013-03-03 17:10:00,28.5,24.0,29.72,SW,225,0.0,3.0,83,0.00,,,0.01,VWS V14.01,2013-03-03 22:10:00,
2013-03-03 17:15:00,28.5,24.0,29.72,SW,225,0.0,3.0,83,0.01,,,0.01,VWS V14.01,2013-03-03 22:15:00,
2013-03-03 17:20:00,28.4,23.9,29.73,SW,225,0.0,2.0,83,0.00,,,0.01,VWS V14.01,2013-03-03 22:20:00,
2013-03-03 17:25:00,28.4,23.9,29.72,SW,225,0.0,2.0,83,0.01,,,0.02,VWS V14.01,2013-03-03 22:25:00,
2013-03-03 17:30:00,28.4,24.2,29.73,SW,225,1.0,4.0,84,0.01,,,0.02,VWS V14.01,2013-03-03 22:30:00,
2013-03-03 17:35:00,28.3,24.1,29.73,WSW,248,0.0,1.0,84,0.01,,,0.02,VWS V14.01,2013-03-03 22:35:00,
2013-03-03 17:40:00,28.3,24.1,29.73,WSW,248,1.0,3.0,84,0.01,,,0.02,VWS V14.01,2013-03-03 22:40:00,
2013-03-03 17:45:00,28.2,24.0,29.73,WSW,248,0.0,1.0,84,0.01,,,0.02,VWS V14.01,2013-03-03 22:45:00,
2013-03-03 17:50:00,28.2,24.0,29.73,WSW,248,0.0,1.0,84,0.01,,,0.02,VWS V14.01,2013-03-03 22:50:00,
2013-03-03 17:55:00,28.2,24.0,29.73,WSW,248,1.0,3.0,84,0.01,,,0.02,VWS V14.01,2013-03-03 22:55:00,
2013-03-03 18:00:00,28.2,24.0,29.73,WSW,248,0.0,0.0,84,0.01,,,0.02,VWS V14.01,2013-03-03 23:00:00,
2013-03-03 18:05:00,28.2,24.3,29.73,WSW,248,0.0,0.0,85,0.01,,,0.02,VWS V14.01,2013-03-03 23:05:00,
2013-03-03 18:10:00,28.2,24.3,29.73,WSW,248,1.0,3.0,85,0.01,,,0.02,VWS V14.01,2013-03-03 23:10:00,
2013-03-03 18:15:00,28.1,24.2,29.73,WSW,248,2.0,4.0,85,0.01,,,0.02,VWS V14.01,2013-03-03 23:15:00,
2013-03-03 18:20:00,28.1,24.2,29.73,WSW,248,1.0,4.0,85,0.01,,,0.02,VWS V14.01,2013-03-03 23:20:00,
2013-03-03 18:25:00,28.0,24.1,29.74,SW,225,1.0,6.0,85,0.01,,,0.02,VWS V14.01,2013-03-03 23:25:00,
2013-03-03 18:30:00,28.0,24.1,29.74,SW,225,1.0,4.0,85,0.00,,,0.02,VWS V14.01,2013-03-03 23:30:00,
2013-03-03 18:35:00,27.9,24.0,29.74,WSW,248,1.0,5.0,85,0.00,,,0.02,VWS V14.01,2013-03-03 23:35:00,
2013-03-03 18:40:00,27.9,24.0,29.74,WSW,248,2.0,6.0,85,0.00,,,0.02,VWS V14.01,2013-03-03 23:40:00,
2013-03-03 18:45:00,27.8,23.9,29.74,WSW,248,1.0,3.0,85,0.00,,,0.02,VWS V14.01,2013-03-03 23:45:00,
2013-03-03 18:50:00,27.8,24.2,29.74,WSW,248,0.0,3.0,86,0.00,,,0.02,VWS V14.01,2013-03-03 23:50:00,
2013-03-03 18:55:00,27.8,24.2,29.74,WSW,248,0.0,2.0,86,0.00,,,0.02,VWS V14.01,2013-03-03 23:55:00,
2013-03-03 19:00:00,27.8,24.2,29.74,WSW,248,0.0,3.0,86,0.00,,,0.02,VWS V14.01,2013-03-04 00:00:00,
2013-03-03 19:05:00,27.8,24.2,29.74,South,180,1.0,5.0,86,0.00,,,0.02,VWS V14.01,2013-03-04 00:05:00,
2013-03-03 19:10:00,27.7,24.1,29.74,SW,225,1.0,5.0,86,0.00,,,0.02,VWS V14.01,2013-03-04 00:10:00,
2013-03-03 19:15:00,27.7,24.1,29.74,SSE,158,1.0,4.0,86,0.00,,,0.02,VWS V14.01,2013-03-04 00:15:00,
2013-03-03 19:20:00,27.6,24.0,29.74,SSW,202,1.0,4.0,86,0.00,,,0.02,VWS V14.01,2013-03-04 00:20:00,
2013-03-03 19:25:00,27.6,24.2,29.74,South,180,1.0,3.0,87,0.00,,,0.02,VWS V14.01,2013-03-04 00:25:00,
2013-03-03 19:30:00,27.5,24.1,29.74,SSW,202,0.0,2.0,87,0.00,,,0.02,VWS V14.01,2013-03-04 00:30:00,
2013-03-03 19:35:00,27.5,24.1,29.74,SSW,202,1.0,3.0,87,0.00,,,0.02,VWS V14.01,2013-03-04 00:35:00,
2013-03-03 19:40:00,27.5,24.1,29.74,SSW,202,1.0,3.0,87,0.00,,,0.02,VWS V14.01,2013-03-04 00:40:00,
2013-03-03 19:45:00,27.5,24.1,29.74,SSW,202,1.0,3.0,87,0.00,,,0.02,VWS V14.01,2013-03-04 00:45:00,
2013-03-03 19:50:00,27.4,24.0,29.74,SSW,202,1.0,3.0,87,0.00,,,0.02,VWS V14.01,2013-03-04 00:50:00,
2013-03-03 19:55:00,27.4,24.0,29.74,SSW,202,1.0,3.0,87,0.00,,,0.02,VWS V14.01,2013-03-04 00:55:00,
2013-03-03 20:00:00,27.4,24.0,29.74,SSW,202,0.0,3.0,87,0.00,,,0.02,VWS V14.01,2013-03-04 01:00:00,
2013-03-03 20:05:00,27.4,24.0,29.74,SSW,202,1.0,4.0,87,0.00,,,0.02,VWS V14.01,2013-03-04 01:05:00,
2013-03-03 20:10:00,27.4,24.0,29.74,SSW,202,0.0,0.0,87,0.00,,,0.02,VWS V14.01,2013-03-04 01:10:00,
2013-03-03 20:15:00,27.4,24.0,29.74,SSW,202,1.0,4.0,87,0.00,,,0.02,VWS V14.01,2013-03-04 01:15:00,
2013-03-03 20:20:00,27.3,23.7,29.74,SW,225,1.0,4.0,86,0.00,,,0.02,VWS V14.01,2013-03-04 01:20:00,
2013-03-03 20:25:00,27.3,23.7,29.74,SW,225,1.0,4.0,86,0.00,,,0.02,VWS V14.01,2013-03-04 01:25:00,
2013-03-03 20:30:00,27.2,23.6,29.74,SW,225,0.0,2.0,86,0.00,,,0.02,VWS V14.01,2013-03-04 01:30:00,
2013-03-03 20:35:00,27.2,23.3,29.74,ENE,68,1.0,4.0,85,0.00,,,0.02,VWS V14.01,2013-03-04 01:35:00,
2013-03-03 20:40:00,27.1,23.2,29.74,WSW,248,1.0,3.0,85,0.00,,,0.02,VWS V14.01,2013-03-04 01:40:00,
2013-03-03 20:45:00,27.0,22.8,29.74,SSW,202,1.0,6.0,84,0.00,,,0.02,VWS V14.01,2013-03-04 01:45:00,
2013-03-03 20:50:00,27.0,22.8,29.74,WSW,248,1.0,4.0,84,0.00,,,0.02,VWS V14.01,2013-03-04 01:50:00,
2013-03-03 20:55:00,27.0,22.8,29.74,WSW,248,0.0,1.0,84,0.00,,,0.02,VWS V14.01,2013-03-04 01:55:00,
2013-03-03 21:00:00,26.9,22.4,29.74,WSW,248,1.0,6.0,83,0.00,,,0.02,VWS V14.01,2013-03-04 02:00:00,
2013-03-03 21:05:00,26.9,22.4,29.74,East,90,1.0,7.0,83,0.00,,,0.02,VWS V14.01,2013-03-04 02:05:00,
2013-03-03 21:10:00,26.8,22.0,29.74,SW,225,2.0,5.0,82,0.00,,,0.02,VWS V14.01,2013-03-04 02:10:00,
2013-03-03 21:15:00,26.8,22.0,29.74,West,270,1.0,4.0,82,0.00,,,0.02,VWS V14.01,2013-03-04 02:15:00,
2013-03-03 21:20:00,26.7,21.7,29.74,WSW,248,1.0,7.0,81,0.00,,,0.02,VWS V14.01,2013-03-04 02:20:00,
2013-03-03 21:25:00,26.7,21.7,29.74,SSE,158,1.0,4.0,81,0.00,,,0.02,VWS V14.01,2013-03-04 02:25:00,
2013-03-03 21:30:00,26.7,21.7,29.74,SSE,158,1.0,5.0,81,0.00,,,0.02,VWS V14.01,2013-03-04 02:30:00,
2013-03-03 21:35:00,26.6,21.6,29.74,West,270,1.0,6.0,81,0.00,,,0.02,VWS V14.01,2013-03-04 02:35:00,
2013-03-03 21:40:00,26.6,21.6,29.74,SW,225,1.0,4.0,81,0.00,,,0.02,VWS V14.01,2013-03-04 02:40:00,
2013-03-03 21:45:00,26.6,21.6,29.74,WSW,248,2.0,6.0,81,0.00,,,0.02,VWS V14.01,2013-03-04 02:45:00,
2013-03-03 21:50:00,26.7,21.7,29.74,SW,225,1.0,5.0,81,0.00,,,0.02,VWS V14.01,2013-03-04 02:50:00,
2013-03-03 21:55:00,26.2,21.8,29.74,SW,230,4.0,6.0,83,0.01,,,0.03,VWS V14.01,2013-03-04 02:55:00,
2013-03-03 22:00:00,26.7,21.7,29.74,SW,229,0.0,1.0,81,0.00,,,0.03,VWS V14.01,2013-03-04 03:00:00,
2013-03-03 22:01:00,26.7,21.7,29.74,SW,229,3.0,3.0,81,0.01,,,0.03,VWS V14.01,2013-03-04 03:01:00,
2013-03-03 22:05:00,26.7,21.7,29.74,WSW,250,3.0,7.0,81,0.01,,,0.03,VWS V14.01,2013-03-04 03:05:00,
2013-03-03 22:06:00,26.7,21.7,29.74,WSW,250,2.0,7.0,81,0.01,,,0.03,VWS V14.01,2013-03-04 03:06:00,
2013-03-03 22:10:00,26.7,21.7,29.74,SSW,201,0.0,4.0,81,0.01,,,0.03,VWS V14.01,2013-03-04 03:10:00,
2013-03-03 22:11:00,26.7,21.7,29.74,SSW,201,0.0,4.0,81,0.01,,,0.03,VWS V14.01,2013-03-04 03:11:00,
2013-03-03 22:15:00,26.7,22.0,29.74,ESE,106,1.0,8.0,82,0.01,,,0.03,VWS V14.01,2013-03-04 03:15:00,
2013-03-03 22:16:00,26.7,22.0,29.74,ESE,107,2.0,8.0,82,0.01,,,0.03,VWS V14.01,2013-03-04 03:16:00,
2013-03-03 22:20:00,26.7,22.0,29.74,SW,224,2.0,5.0,82,0.01,,,0.03,VWS V14.01,2013-03-04 03:20:00,
2013-03-03 22:21:00,26.7,22.0,29.74,SW,225,4.0,5.0,82,0.01,,,0.03,VWS V14.01,2013-03-04 03:21:00,
2013-03-03 22:25:00,26.6,21.9,29.74,WSW,244,2.0,4.0,82,0.01,,,0.03,VWS V14.01,2013-03-04 03:25:00,
2013-03-03 22:26:00,26.6,21.9,29.74,SW,225,4.0,4.0,82,0.01,,,0.03,VWS V14.01,2013-03-04 03:26:00,
2013-03-03 22:30:00,26.5,21.8,29.73,WSW,238,4.0,5.0,82,0.01,,,0.03,VWS V14.01,2013-03-04 03:30:00,
2013-03-03 22:31:00,26.6,21.9,29.74,West,272,2.0,5.0,82,0.01,,,0.03,VWS V14.01,2013-03-04 03:31:00,
2013-03-03 22:35:00,26.5,21.8,29.74,SSW,195,3.0,7.0,82,0.01,,,0.03,VWS V14.01,2013-03-04 03:35:00,
2013-03-03 22:36:00,26.5,21.8,29.74,South,190,1.0,7.0,82,0.01,,,0.03,VWS V14.01,2013-03-04 03:36:00,
2013-03-03 22:40:00,26.4,22.0,29.73,SW,231,4.0,6.0,83,0.01,,,0.03,VWS V14.01,2013-03-04 03:40:00,
2013-03-03 22:41:00,26.4,22.0,29.73,SW,231,4.0,6.0,83,0.01,,,0.03,VWS V14.01,2013-03-04 03:41:00,
2013-03-03 22:42:00,26.4,22.0,29.73,West,265,2.0,7.0,83,0.01,,,0.03,VWS V14.01,2013-03-04 03:42:00,
2013-03-03 22:45:00,26.3,21.9,29.73,SSE,153,0.0,7.0,83,0.01,,,0.03,VWS V14.01,2013-03-04 03:45:00,
2013-03-03 22:46:00,26.3,21.9,29.73,SSE,153,0.0,7.0,83,0.01,,,0.03,VWS V14.01,2013-03-04 03:46:00,
2013-03-03 22:47:00,26.3,21.9,29.73,WSW,257,3.0,4.0,83,0.01,,,0.03,VWS V14.01,2013-03-04 03:47:00,
2013-03-03 22:50:00,26.3,21.9,29.74,WSW,256,3.0,7.0,83,0.01,,,0.03,VWS V14.01,2013-03-04 03:50:00,
2013-03-03 22:51:00,26.3,21.9,29.74,WSW,256,3.0,7.0,83,0.01,,,0.03,VWS V14.01,2013-03-04 03:51:00,
2013-03-03 22:52:00,26.3,21.9,29.74,SW,219,3.0,6.0,83,0.01,,,0.03,VWS V14.01,2013-03-04 03:52:00,
2013-03-03 22:55:00,26.2,21.8,29.74,SW,230,4.0,6.0,83,0.01,,,0.03,VWS V14.01,2013-03-04 03:55:00,
2013-03-03 22:56:00,26.2,21.8,29.74,SW,230,4.0,6.0,83,0.01,,,0.03,VWS V14.01,2013-03-04 03:56:00,
2013-03-03 22:58:00,26.2,21.8,29.73,West,263,0.0,5.0,83,0.00,,,0.03,VWS V14.01,2013-03-04 03:58:00,
2013-03-03 23:00:00,26.2,21.8,29.74,WSW,247,3.0,5.0,83,0.00,,,0.03,VWS V14.01,2013-03-04 04:00:00,
2013-03-03 23:01:00,26.2,21.8,29.74,WSW,247,3.0,5.0,83,0.00,,,0.03,VWS V14.01,2013-03-04 04:01:00,
2013-03-03 23:02:00,26.2,21.8,29.74,NW,306,5.0,5.0,83,0.00,,,0.03,VWS V14.01,2013-03-04 04:02:00,
2013-03-03 23:03:00,26.2,21.8,29.73,WSW,251,1.0,5.0,83,0.00,,,0.03,VWS V14.01,2013-03-04 04:03:00,
2013-03-03 23:05:00,26.2,21.8,29.73,SW,234,2.0,7.0,83,0.00,,,0.03,VWS V14.01,2013-03-04 04:05:00,
2013-03-03 23:06:00,26.2,21.8,29.73,SW,234,2.0,7.0,83,0.00,,,0.03,VWS V14.01,2013-03-04 04:06:00,
2013-03-03 23:07:00,26.1,21.6,29.73,WSW,248,2.0,5.0,83,0.00,,,0.03,VWS V14.01,2013-03-04 04:07:00,
2013-03-03 23:08:00,26.1,21.6,29.73,WSW,248,0.0,5.0,83,0.00,,,0.03,VWS V14.01,2013-03-04 04:08:00,
2013-03-03 23:10:00,26.2,21.8,29.73,SSW,200,4.0,5.0,83,0.00,,,0.03,VWS V14.01,2013-03-04 04:10:00,
2013-03-03 23:11:00,26.2,21.8,29.73,SSW,200,4.0,5.0,83,0.00,,,0.03,VWS V14.01,2013-03-04 04:11:00,
2013-03-03 23:12:00,26.1,21.6,29.73,SW,227,3.0,6.0,83,0.00,,,0.03,VWS V14.01,2013-03-04 04:12:00,
2013-03-03 23:13:00,26.1,21.6,29.73,WSW,252,0.0,6.0,83,0.00,,,0.03,VWS V14.01,2013-03-04 04:13:00,
2013-03-03 23:15:00,26.1,21.6,29.73,WSW,242,2.0,6.0,83,0.00,,,0.03,VWS V14.01,2013-03-04 04:15:00,
2013-03-03 23:16:00,26.1,21.6,29.73,WSW,242,2.0,6.0,83,0.00,,,0.03,VWS V14.01,2013-03-04 04:16:00,
2013-03-03 23:17:00,26.1,21.6,29.73,WSW,242,1.0,3.0,83,0.00,,,0.03,VWS V14.01,2013-03-04 04:17:00,
2013-03-03 23:18:00,26.1,21.6,29.73,WSW,242,1.0,3.0,83,0.00,,,0.03,VWS V14.01,2013-03-04 04:18:00,
2013-03-03 23:20:00,26.1,21.6,29.73,WSW,242,1.0,3.0,83,0.00,,,0.03,VWS V14.01,2013-03-04 04:20:00,
2013-03-03 23:21:00,26.1,21.6,29.73,WSW,242,1.0,3.0,83,0.00,,,0.03,VWS V14.01,2013-03-04 04:21:00,
2013-03-03 23:22:00,26.1,21.6,29.73,WSW,242,0.0,2.0,83,0.00,,,0.03,VWS V14.01,2013-03-04 04:22:00,
2013-03-03 23:23:00,26.1,21.6,29.73,WSW,242,1.0,2.0,83,0.00,,,0.03,VWS V14.01,2013-03-04 04:23:00,
2013-03-03 23:25:00,26.1,21.6,29.73,SW,236,2.0,5.0,83,0.00,,,0.03,VWS V14.01,2013-03-04 04:25:00,
2013-03-03 23:26:00,26.1,21.6,29.73,SW,236,2.0,5.0,83,0.00,,,0.03,VWS V14.01,2013-03-04 04:26:00,
2013-03-03 23:27:00,26.1,21.6,29.73,SW,236,1.0,3.0,83,0.00,,,0.03,VWS V14.01,2013-03-04 04:27:00,
2013-03-03 23:28:00,26.1,21.6,29.73,SW,236,1.0,4.0,83,0.00,,,0.03,VWS V14.01,2013-03-04 04:28:00,
2013-03-03 23:30:00,26.1,21.6,29.73,SW,234,0.0,4.0,83,0.00,,,0.03,VWS V14.01,2013-03-04 04:30:00,
2013-03-03 23:31:00,26.1,21.6,29.73,SW,235,0.0,0.0,83,0.00,,,0.03,VWS V14.01,2013-03-04 04:31:00,
2013-03-03 23:32:00,26.1,21.6,29.73,SW,234,1.0,2.0,83,0.00,,,0.03,VWS V14.01,2013-03-04 04:32:00,
2013-03-03 23:33:00,26.1,21.6,29.73,SW,235,1.0,2.0,83,0.00,,,0.03,VWS V14.01,2013-03-04 04:33:00,
2013-03-03 23:35:00,26.1,21.6,29.73,SW,221,1.0,5.0,83,0.00,,,0.03,VWS V14.01,2013-03-04 04:35:00,
2013-03-03 23:36:00,26.1,21.6,29.73,SW,221,1.0,1.0,83,0.00,,,0.03,VWS V14.01,2013-03-04 04:36:00,
2013-03-03 23:37:00,26.1,21.6,29.73,SW,221,0.0,1.0,83,0.00,,,0.03,VWS V14.01,2013-03-04 04:37:00,
2013-03-03 23:38:00,26.1,21.6,29.73,SW,221,0.0,1.0,83,0.00,,,0.03,VWS V14.01,2013-03-04 04:38:00,
2013-03-03 23:40:00,26.1,21.6,29.73,SW,219,3.0,4.0,83,0.00,,,0.03,VWS V14.01,2013-03-04 04:40:00,
2013-03-03 23:41:00,26.0,21.6,29.73,SW,219,2.0,3.0,83,0.00,,,0.03,VWS V14.01,2013-03-04 04:41:00,
2013-03-03 23:42:00,26.0,21.6,29.73,West,265,4.0,4.0,83,0.00,,,0.03,VWS V14.01,2013-03-04 04:42:00,
2013-03-03 23:43:00,26.0,21.6,29.73,West,265,1.0,4.0,83,0.00,,,0.03,VWS V14.01,2013-03-04 04:43:00,
2013-03-03 23:45:00,26.0,21.6,29.73,West,265,3.0,4.0,83,0.00,,,0.03,VWS V14.01,2013-03-04 04:45:00,
2013-03-03 23:46:00,26.0,21.6,29.73,West,259,3.0,4.0,83,0.00,,,0.03,VWS V14.01,2013-03-04 04:46:00,
2013-03-03 23:47:00,26.0,21.6,29.73,WSW,257,2.0,4.0,83,0.00,,,0.03,VWS V14.01,2013-03-04 04:47:00,
2013-03-03 23:48:00,26.0,21.6,29.73,WSW,258,1.0,4.0,83,0.00,,,0.03,VWS V14.01,2013-03-04 04:48:00,
2013-03-03 23:50:00,26.0,21.6,29.73,SW,225,2.0,4.0,83,0.00,,,0.03,VWS V14.01,2013-03-04 04:50:00,
2013-03-03 23:51:00,26.0,21.6,29.73,West,264,2.0,4.0,83,0.00,,,0.03,VWS V14.01,2013-03-04 04:51:00,
2013-03-03 23:52:00,26.0,21.3,29.73,West,264,2.0,4.0,82,0.00,,,0.03,VWS V14.01,2013-03-04 04:52:00,
2013-03-03 23:53:00,26.0,21.3,29.73,West,264,0.0,4.0,82,0.00,,,0.03,VWS V14.01,2013-03-04 04:53:00,
2013-03-03 23:55:00,26.0,21.3,29.73,West,261,2.0,4.0,82,0.00,,,0.03,VWS V14.01,2013-03-04 04:55:00,
2013-03-03 23:56:00,26.0,21.3,29.73,WSW,252,4.0,6.0,82,0.00,,,0.03,VWS V14.01,2013-03-04 04:56:00,
2013-03-03 23:57:00,26.0,21.3,29.73,WSW,252,0.0,6.0,82,0.00,,,0.03,VWS V14.01,2013-03-04 04:57:00,
2013-03-03 23:58:00,25.9,21.2,29.73,WSW,249,5.0,6.0,82,0.00,,,0.03,VWS V14.01,2013-03-04 04:58:00,